Location: Unspecified
(0.0000°N, 0.0000°E)
Time: 22:18:31
(UTC+01:00)

ATLAS 2AS CENTAUR R/B - Visible Passes

Search period start: 24 January 2017 00:00
Search period end: 03 February 2017 00:00
Orbit: 904 x 1308 km, 63.7° (Epoch: 22 January)

Date Brightness Start Highest point End Pass type
(mag) Time Alt. Az. Time Alt. Az. Time Alt. Az.
24 Jan 2.7 20:28:12 10° SSW 20:34:55 77° ESE 20:39:47 23° NNE visible
24 Jan 5.3 22:24:36 10° WNW 22:25:59 11° WNW 22:27:19 10° NW visible
25 Jan 3.2 19:44:00 10° S 19:50:15 41° ESE 19:57:03 10° NE visible
25 Jan 4.7 21:35:53 10° WSW 21:41:01 22° WNW 21:45:09 14° NNW visible
26 Jan 3.9 20:49:49 10° SW 20:56:08 41° WNW 21:03:03 10° N visible
27 Jan 5.2 06:40:19 10° NNE 06:44:38 16° ENE 06:48:45 10° E visible
27 Jan 3.0 20:04:37 10° SSW 20:11:21 75° WNW 20:18:49 10° NNE visible
28 Jan 5.2 21:13:56 10° W 21:17:36 15° WNW 21:21:26 10° NNW visible
29 Jan 4.5 20:26:55 10° WSW 20:32:40 28° WNW 20:38:53 10° N visible
30 Jan 4.8 06:15:29 10° NNE 06:21:12 24° ENE 06:26:32 10° ESE visible
30 Jan 3.6 19:41:16 10° SW 19:47:50 52° WNW 19:55:05 10° N visible
31 Jan 5.3 05:33:39 10° NE 05:36:15 12° ENE 05:38:48 10° E visible
01 Feb 3.2 06:35:16 10° NNW 06:42:33 66° ENE 06:49:08 10° SSE visible
01 Feb 5.2 20:04:27 10° WSW 20:09:14 20° WNW 20:14:19 10° NNW visible
02 Feb 4.2 05:51:10 10° N 05:57:45 35° ENE 06:03:47 10° SE visible
